Location: Stara Lesna
(49.1528°N, 20.2911°E)
Time: 19:10:22
(UTC+02:00)

Cosmos 1184 Rocket - Pass Details

Date: 13 July 2020
Orbit: 408 x 421 km, 81.2° (Epoch: 11 August)

Event Time Altitude Azimuth Distance (km) Brightness Sun altitude
Exits shadow 02:02:54 50° 192° (SSW) 538 2.8 -16.9°
Maximum altitude 02:03:39 89° 254° (WSW) 422 2.6 -16.9°
Drops below altitude 10° 02:06:56 10° 12° (NNE) 1,506 6.9 -16.7°
Sets 02:08:59 0° 12° (NNE) 2,378 8.3 -16.6°
